RH
24 26 26 21 16 10 7 5 5 4 4 5 5 5 5 5 6 6 6 6 7 7 7 8 8 8 8 8 8 8 8 8 7 7 6 6 5 4 4 3 3 3 3 4 4 5 6 6 6 6 6 5 6 7 9 11 14 16 18 19 20 22 23 23 23 23 22 21 20 19 18 18 18 18 19 19 20 21 22 23 24 24 25 25 25 26
21 25 29 28 24 18 12 8 6 5 4 4 5 5 5 5 6 6 6 6 7 7 7 8 8 8 8 8 9 9 9 8 8 8 8 7 6 6 5 4 4 3 3 2 2 2 3 3 3 4 4 4 4 4 4 5 5 6 8 9 10 12 13 14 15 16 15 15 15 15 14 14 14 14 14 15 15 15 15 15 14 14 14 13 13 13
16 20 26 30 31 28 22 16 10 7 5 4 5 5 5 5 6 6 6 6 7 7 7 7 8 8 9 9 9 9 9 9 9 9 8 8 7 6 6 5 4 4 3 3 3 2 2 2 2 2 2 2 3 3 3 3 3 3 4 4 5 5 6 7 8 9 9 10 10 10 10 10 10 10 10 10 10 10 10 10 9 9 8 8 7 7
12 15 19 25 30 33 32 27 21 14 8 6 5 5 5 5 6 6 6 6 7 7 7 8 8 9 9 10 10 10 10 10 9 9 9 8 8 7 6 5 5 4 4 3 3 3 3 2 2 2 2 2 2 2 2 2 2 2 2 2 3 3 3 3 4 4 5 5 5 6 6 6 6 5 5 5 5 5 5 5 5 4 4 4 4 4
10 11 13 17 23 28 33 34 31 26 19 13 9 6 5 5 6 6 6 7 7 8 8 9 9 10 10 11 11 11 11 11 10 10 9 9 8 7 6 5 5 4 4 3 3 3 3 2 2 2 2 2 2 2 1 1 1 1 1 2 2 2 2 2 2 2 2 3 3 3 3 3 3 2 2 2 2 2 2 2 2 2 2 1 1 1
10 10 10 12 15 20 26 31 35 35 32 26 19 14 10 8 7 7 7 8 8 9 9 10 10 11 12 13 13 13 13 12 11 11 10 9 8 7 6 5 5 4 4 3 3 3 2 2 2 2 2 2 2 1 1 1 1 1 1 1 1 1 1 1 1 1 1 1 1 1 1 1 1 1 1 1 1 1 1 1 1 1 1 1 1 1
10 10 9 10 11 13 17 23 29 35 38 36 32 27 22 17 14 12 10 10 10 10 11 11 12 13 14 14 15 15 14 14 12 11 10 9 8 7 6 5 5 4 3 3 3 2 2 2 2 2 2 1 1 1 1 1 1 1 1 1 1 1 1 1 1 1 1 1 1 1 1 1 1 1 1 1 1 1 1 1 1 1 1 1 1 1
11 11 10 10 10 10 12 16 21 27 33 37 39 38 35 31 27 23 19 17 15 14 13 14 14 15 15 16 16 16 16 15 13 12 10 9 8 7 6 5 4 4 3 3 3 2 2 2 2 2 1 1 1 1 1 1 1 1 1 1 1 1 1 1 1 1 1 1 1 1 1 1 1 1 2 2 2 2 2 2 2 2 2 2 2 2
12 12 11 11 10 10 10 11 14 19 24 30 35 40 43 42 40 36 32 28 24 20 18 17 17 17 17 18 18 18 17 16 14 12 11 10 9 7 6 5 4 3 3 3 2 2 2 2 2 1 1 1 1 1 1 1 1 1 1 1 1 1 1 1 2 2 2 2 2 2 2 2 2 2 3 3 3 3 3 3 3 3 3 2 2 2
13 12 12 11 11 10 10 10 11 13 18 22 28 34 40 44 46 46 45 41 35 30 25 21 20 19 19 19 19 19 18 17 15 13 11 10 9 7 6 5 4 3 3 3 2 2 2 2 2 2 2 1 1 1 1 1 2 2 2 2 2 2 2 2 2 2 3 3 3 3 3 4 4 4 4 4 4 4 4 4 4 4 4 4 3 3
13 13 12 12 11 11 10 10 10 11 14 17 21 26 33 39 45 49 52 50 46 41 34 28 24 22 21 21 21 20 20 18 15 13 11 10 8 7 6 5 4 3 3 3 2 2 2 2 2 2 2 2 2 2 2 2 2 2 2 2 3 3 3 3 3 4 4 4 4 5 5 5 5 5 5 5 5 5 5 5 5 5 5 5 5 4
14 13 13 12 12 11 11 10 10 11 12 14 18 22 27 33 39 46 51 53 52 49 44 36 30 26 23 22 22 21 21 18 16 13 11 10 8 7 5 4 3 3 3 3 3 2 2 2 2 2 2 2 2 2 3 3 3 3 3 3 4 4 4 4 5 5 5 5 5 5 6 6 6 6 6 6 6 6 6 6 6 6 6 6 6 6
16 14 13 12 12 12 11 11 11 11 11 13 17 20 24 28 33 40 47 52 54 54 51 44 37 30 26 24 23 22 21 19 16 13 11 10 8 6 5 4 3 3 3 3 3 3 3 3 3 3 3 3 3 3 3 3 3 4 4 4 5 5 5 5 5 6 6 6 6 6 6 6 6 6 6 6 6 7 7 7 7 7 7 7 7 7
17 15 14 13 12 12 12 11 11 11 12 13 15 17 19 24 30 37 44 51 55 57 56 50 43 35 29 26 24 23 21 19 16 13 11 9 8 6 4 3 3 3 3 3 3 3 3 3 3 3 3 3 3 3 4 4 4 5 5 5 5 6 6 6 6 6 6 6 6 6 6 6 7 7 7 7 7 7 7 8 8 8 8 8 8 9
18 16 15 13 12 12 12 11 11 11 12 12 13 14 17 22 28 35 44 50 55 58 59 55 49 41 33 28 25 23 21 19 16 13 11 9 7 6 4 3 3 3 3 3 3 3 3 3 3 3 3 4 4 4 5 5 5 5 6 6 6 6 6 6 6 7 7 7 7 7 7 7 7 7 7 7 8 8 8 8 8 9 9 9 9 10
19 17 15 14 13 12 12 12 12 12 11 11 12 14 17 22 28 35 43 50 55 59 61 59 53 46 37 31 26 23 21 19 16 14 11 9 7 5 4 3 3 3 3 3 3 3 3 3 4 4 4 4 5 5 5 6 6 6 6 7 7 7 7 7 7 7 7 7 7 7 7 8 8 8 8 8 8 9 9 9 9 9 10 10 10 10
19 18 17 15 14 13 12 12 12 12 11 11 12 13 16 21 27 34 43 50 56 61 64 62 58 50 41 33 27 23 21 18 16 13 11 9 7 5 4 3 3 3 3 3 3 3 4 4 4 4 5 5 5 6 6 6 7 7 7 7 7 8 8 8 8 8 8 8 8 8 8 8 9 9 9 9 9 9 10 10 10 10 10 10 11 11
20 19 17 16 15 14 13 12 12 12 11 12 12 13 14 18 24 32 42 51 58 63 66 66 61 54 45 35 28 23 20 18 15 13 10 8 6 5 4 3 3 3 3 3 4 4 4 4 5 5 5 6 6 7 7 7 7 8 8 8 8 8 8 8 9 9 9 9 9 9 9 9 10 10 10 10 10 10 10 10 11 11 11 11 11 12
20 19 18 16 15 14 14 13 13 12 12 12 12 13 15 17 23 31 41 50 58 64 69 69 65 58 47 36 28 23 19 17 14 12 10 8 6 5 4 4 3 3 3 4 4 4 5 5 5 6 6 7 7 7 8 8 8 9 9 9 9 9 9 9 10 10 10 10 10 10 10 10 11 11 11 11 11 11 11 12 12 12 12 12 13 13
21 20 18 17 16 15 14 13 13 12 11 11 12 13 16 19 24 32 41 50 58 64 69 71 67 60 49 38 28 22 18 15 13 11 9 7 6 4 4 3 3 3 4 4 4 5 5 6 6 7 7 7 8 8 9 9 9 10 10 10 10 10 10 11 11 11 11 11 11 12 12 12 12 12 12 12 13 13 13 13 13 13 13 14 14 14
21 20 19 18 16 15 14 13 12 12 11 11 12 14 16 20 26 33 40 49 58 65 70 72 69 63 52 39 28 20 16 14 12 10 8 7 5 4 4 3 3 4 4 4 5 5 6 7 7 8 8 8 9 9 10 10 10 10 11 11 11 12 12 12 12 12 13 13 13 13 13 13 14 14 14 14 14 14 14 14 15 15 15 15 15 16
22 21 20 18 17 15 14 13 12 12 12 12 13 14 17 22 27 34 40 49 58 66 72 73 70 64 53 39 28 20 16 13 11 9 7 6 5 4 4 4 4 4 4 5 6 6 7 7 8 9 9 9 10 10 10 11 11 12 12 12 13 13 13 13 14 14 14 14 15 15 15 15 15 15 15 16 16 16 16 16 16 16 17 17 17 17
22 21 20 19 17 16 15 14 13 13 12 12 12 13 16 21 27 34 41 51 60 67 73 73 71 64 52 38 27 19 15 13 10 8 6 5 5 4 4 4 4 4 5 6 7 7 8 9 9 10 10 10 11 11 12 12 12 13 13 14 14 14 15 15 15 15 16 16 16 16 17 17 17 17 17 17 17 17 18 18 18 18 18 18 18 18
22 21 20 19 18 17 16 15 14 13 13 13 13 14 17 21 27 34 42 52 62 69 73 74 70 64 53 38 26 18 15 13 10 8 6 5 5 4 4 4 5 5 6 7 8 9 9 10 10 11 11 12 12 12 13 13 14 14 15 15 15 16 16 16 17 17 17 18 18 18 18 18 18 18 18 19 19 19 19 19 19 19 20 20 20 20
23 21 20 19 18 17 16 15 14 13 13 13 14 15 18 22 27 35 44 54 64 71 75 74 69 62 53 39 27 18 15 14 11 9 6 5 5 4 4 5 6 7 8 9 9 10 10 11 12 12 13 13 13 14 14 15 15 16 16 16 17 17 18 18 18 19 19 19 20 20 20 20 20 20 20 20 20 21 21 21 21 21 21 22 22 22
23 22 20 19 18 17 16 15 15 14 14 14 14 15 18 21 27 35 46 57 66 73 76 73 67 60 51 38 27 19 15 14 12 10 7 6 5 4 5 6 7 8 9 10 10 11 12 12 13 13 14 14 15 15 16 16 17 17 18 18 18 19 19 20 20 21 21 21 21 21 21 22 22 22 22 22 22 23 23 23 23 23 23 24 24 24
23 22 20 19 18 17 16 15 15 14 14 14 15 16 18 21 27 37 49 59 67 73 75 73 67 59 50 38 27 19 15 14 13 11 8 6 5 5 5 6 7 9 10 11 12 13 13 14 14 15 15 16 16 17 17 18 18 19 19 20 20 21 21 22 22 22 23 23 23 23 23 23 23 24 24 24 24 25 25 25 25 25 26 26 26 26
23 22 20 19 18 17 16 15 15 14 14 14 15 17 19 22 30 41 53 61 69 74 74 72 66 58 49 37 27 20 15 14 13 11 9 6 5 5 6 7 8 10 11 12 13 14 15 15 16 17 17 18 18 19 19 20 20 21 21 22 22 23 23 24 24 24 24 24 25 25 25 25 25 26 26 26 26 27 27 27 27 27 28 28 28 28
23 22 20 19 18 17 16 15 14 14 14 14 15 17 20 24 33 44 55 64 71 75 74 71 65 57 48 37 27 20 16 14 13 11 8 6 5 5 6 8 10 11 12 14 15 15 16 17 18 18 19 19 20 21 21 22 22 23 23 24 24 25 25 25 26 26 26 26 26 26 26 27 27 27 28 28 28 29 29 29 29 30 30 30 30 30
23 21 20 19 18 17 16 15 14 14 14 14 16 18 21 27 35 46 58 68 73 75 74 70 64 57 48 37 27 20 17 15 13 11 8 6 6 6 7 9 11 12 14 15 16 17 18 19 20 20 21 22 22 23 24 24 25 26 26 26 27 27 27 27 27 27 27 27 27 28 28 28 29 29 29 30 30 30 31 31 31 32 32 32 32 32
22 21 20 19 18 16 15 14 13 13 13 14 16 19 23 30 39 50 61 69 73 74 73 69 64 57 48 36 27 21 18 16 13 11 8 7 7 8 9 11 13 15 16 17 18 19 20 21 22 23 24 24 25 26 27 27 28 29 29 29 29 29 28 28 28 28 28 28 29 29 29 30 30 30 31 31 31 32 32 33 33 33 34 34 34 34
22 20 19 18 17 15 14 13 12 12 13 14 17 21 26 34 43 53 63 68 72 74 73 69 64 58 48 36 28 22 19 16 14 11 8 7 8 9 11 13 15 17 19 20 21 22 22 24 25 26 27 28 29 30 30 31 32 32 32 32 31 31 30 29 29 29 29 29 29 29 30 30 30 31 31 32 32 33 33 34 34 34 35 35 35 35
20 19 18 17 16 14 12 11 11 11 12 14 18 23 29 38 47 56 62 67 70 73 73 70 64 56 46 37 30 24 20 17 13 11 9 8 9 11 14 16 18 20 22 23 24 25 25 26 28 29 31 32 33 34 35 35 35 35 35 34 34 33 32 31 30 30 29 29 29 30 30 30 31 31 31 32 33 33 34 34 34 35 35 35 35 35
19 18 17 16 14 13 11 10 10 10 11 14 19 25 33 43 51 58 63 67 70 72 73 71 64 55 45 37 30 25 20 17 13 11 9 9 11 14 17 19 22 23 25 26 27 27 28 29 31 32 34 36 37 38 38 38 38 37 37 36 36 35 34 33 32 31 30 30 30 30 30 30 30 31 31 32 32 33 33 34 34 35 35 35 35 35
17 16 15 14 12 11 10 9 8 9 10 14 20 28 37 47 55 61 65 68 71 72 72 68 61 52 43 37 31 25 20 16 13 10 9 10 13 16 19 22 24 26 27 28 28 29 30 32 34 35 37 39 41 41 41 41 40 40 39 39 38 37 36 35 34 33 32 31 31 30 30 30 31 31 31 31 32 33 33 34 34 34 35 34 34 34
15 14 13 12 11 10 8 7 7 8 10 15 23 32 41 51 58 63 66 69 71 72 70 64 58 51 43 37 31 25 20 15 12 10 10 12 15 18 21 24 26 27 28 29 30 31 33 35 37 39 41 42 43 44 44 43 42 42 42 41 40 38 37 36 35 34 34 33 32 32 31 31 31 31 31 32 32 33 33 34 34 35 34 34 34 33
13 13 12 10 10 8 7 6 6 7 10 17 26 36 46 55 61 65 68 71 72 71 68 62 56 50 44 37 31 24 19 14 11 10 11 13 16 19 22 25 26 28 29 30 31 33 35 37 40 42 44 45 45 46 46 45 45 44 44 43 42 40 39 38 37 36 35 34 34 33 33 32 32 32 32 33 33 34 35 35 35 35 35 34 34 34
12 11 10 9 8 8 7 6 6 8 13 21 30 41 51 59 64 67 70 72 72 70 66 60 55 49 44 37 30 23 17 13 11 11 12 15 18 21 23 25 26 28 29 30 32 34 37 39 42 44 45 46 47 47 47 48 48 47 46 45 44 43 41 40 39 38 37 36 35 35 34 34 34 34 34 34 35 36 36 36 36 36 36 35 35 34
10 10 9 8 7 7 6 6 9 13 19 28 37 47 56 62 66 69 72 72 71 68 64 58 53 48 43 36 28 22 15 12 10 11 13 16 19 22 24 25 26 27 29 31 33 36 38 41 43 45 46 47 47 48 49 50 50 50 49 47 46 45 43 42 41 40 39 39 38 37 36 36 35 35 36 36 37 37 38 38 38 38 37 37 36 36
9 9 8 7 6 6 7 10 14 20 28 36 45 53 61 65 68 71 73 72 70 67 62 57 52 47 41 34 27 20 14 11 10 11 14 17 20 22 24 24 25 27 28 31 34 36 39 41 43 44 46 47 48 50 51 52 52 51 51 50 49 48 46 45 44 43 42 41 40 40 39 38 38 38 38 38 39 39 40 40 40 40 39 39 38 38
10 9 9 8 9 11 14 19 24 30 36 45 54 62 68 70 72 73 74 72 70 66 60 55 50 45 39 32 25 18 13 11 11 12 15 18 21 22 23 24 25 26 29 32 35 37 39 41 43 44 45 47 50 51 53 54 54 54 53 52 52 51 49 48 47 46 45 44 43 42 42 41 41 41 41 41 41 41 41 41 41 41 40 39 39 39
14 14 13 13 15 19 23 28 33 39 46 55 63 69 72 73 74 75 74 73 70 65 59 53 48 42 36 29 22 16 12 11 12 14 17 19 21 22 23 24 25 27 30 33 35 38 39 41 42 44 46 49 51 53 55 56 56 56 55 55 54 53 52 51 50 48 47 47 46 45 45 44 43 43 43 43 42 42 42 41 41 41 40 40 39 39
22 20 19 21 24 28 32 37 43 50 57 65 71 74 74 74 74 74 73 72 69 64 57 51 45 40 33 26 19 14 11 11 13 16 18 20 22 22 23 24 26 29 32 34 36 38 40 41 43 45 48 51 53 55 57 58 58 57 57 56 55 54 54 52 51 49 48 48 47 47 46 45 45 44 44 43 43 42 42 41 41 41 40 40 39 39
25 25 26 30 34 39 44 50 55 62 68 74 76 76 75 75 74 73 73 71 68 62 55 49 43 37 30 23 17 13 11 12 15 17 19 21 22 23 24 26 29 31 34 36 37 39 40 42 44 47 50 52 55 57 58 58 59 58 58 56 55 54 53 52 51 50 49 48 48 47 46 45 44 44 43 43 42 42 41 41 41 40 40 39 39 39
31 34 38 43 48 53 58 63 68 72 75 76 76 76 76 75 74 73 72 70 66 60 52 46 40 33 26 20 15 12 11 14 16 18 21 22 23 24 26 29 32 35 37 38 39 40 42 44 47 49 52 54 56 57 58 58 58 58 57 56 54 53 51 50 50 49 49 49 48 47 46 44 43 43 42 41 41 41 40 41 41 40 40 39 39 38
50 53 56 60 63 66 70 73 75 76 77 77 77 76 76 74 73 72 71 69 64 57 50 43 36 29 23 18 14 13 13 15 18 20 22 23 25 27 29 33 35 38 39 40 41 43 44 47 49 52 54 55 56 57 57 57 57 57 56 55 53 52 51 50 49 49 48 48 47 46 44 43 42 41 40 40 40 40 40 40 40 39 39 38 37 36
71 72 72 73 74 75 77 77 77 77 78 77 77 76 75 74 73 72 70 67 61 54 46 39 32 25 20 16 14 14 15 18 20 22 23 25 28 30 34 37 39 41 42 43 44 45 47 49 51 54 56 56 57 57 56 56 56 56 55 54 53 52 51 50 49 48 47 46 45 44 42 41 40 39 39 38 38 38 38 38 38 37 36 35 34 33
77 77 77 77 77 77 77 77 77 78 78 77 76 76 75 73 72 71 69 64 57 50 42 34 28 22 18 16 15 16 18 20 22 24 26 29 32 35 39 41 43 44 45 46 46 48 49 51 53 55 56 57 57 57 57 56 56 55 54 53 52 51 50 49 48 47 45 44 43 41 40 39 38 38 37 37 37 36 36 36 35 34 33 31 29 28
77 77 77 77 77 77 77 77 77 77 77 77 76 75 74 73 72 70 68 61 53 45 37 30 25 20 17 16 17 18 21 23 26 28 30 33 37 40 43 45 46 47 47 48 48 50 51 53 55 56 56 57 57 58 57 57 56 55 53 52 51 50 49 48 46 44 43 41 40 39 38 37 37 36 35 35 35 34 33 32 31 30 28 26 25 23
77 77 77 77 77 77 77 77 77 77 77 76 76 75 74 72 71 68 64 56 48 40 33 27 22 19 18 18 20 22 24 27 30 32 35 39 42 45 48 49 49 49 49 49 50 51 53 55 56 56 56 56 57 57 57 56 55 53 51 50 49 48 47 45 43 42 40 39 38 38 37 36 35 34 33 33 32 30 29 28 27 25 24 22 20 18
77 77 77 77 77 77 77 77 77 77 77 76 75 74 73 72 70 66 59 50 42 35 28 24 21 19 19 21 23 26 28 31 34 37 41 44 47 50 51 52 52 51 51 51 52 53 55 57 58 58 57 56 56 56 57 56 54 52 50 49 47 46 44 43 41 39 38 37 37 36 35 35 34 32 31 30 28 27 25 24 23 21 19 17 15 13
Wind_Speed
61 61 61 60 60 59 58 57 55 54 53 52 51 50 49 48 47 47 46 46 46 46 46 46 46 47 47 47 47 47 47 47 48 48 48 49 50 51 53 54 56 59 62 65 68 72 75 77 78 79 79 78 77 76 77 78 79 81 82 83 84 85 86 86 87 87 87 87 87 86 86 86 85 85 85 85 85 86 86 87 88 88 89 89 89 89
61 62 62 62 61 61 60 59 57 56 55 54 53 52 51 50 50 49 49 49 49 49 49 49 49 50 50 50 50 50 50 50 50 50 50 50 51 52 52 53 54 55 57 59 61 63 66 69 72 74 76 78 78 78 77 77 77 78 79 80 80 81 82 83 84 85 85 85 85 85 85 85 85 85 85 85 86 86 86 86 87 87 88 88 89 89
61 62 63 63 63 62 62 61 60 59 58 57 56 55 54 53 53 53 52 52 52 52 52 52 52 52 52 52 52 52 52 52 52 52 52 52 52 53 53 54 54 55 56 57 58 59 61 63 65 68 70 73 75 76 77 78 78 78 78 78 78 78 78 79 80 81 81 82 83 83 83 83 83 84 84 84 84 84 84 84 84 85 85 85 85 86
61 62 63 64 64 64 63 63 62 61 61 60 59 58 57 57 56 56 56 55 55 55 54 54 54 54 53 53 53 53 53 53 53 52 52 53 53 53 54 54 55 55 56 57 58 59 60 61 62 64 65 67 69 71 72 74 75 76 76 76 76 76 76 76 76 77 77 78 78 79 79 79 79 79 79 79 79 79 79 79 79 79 79 79 80 80
61 62 63 64 64 64 64 64 64 64 63 63 62 61 61 60 60 59 59 58 58 57 57 56 55 55 55 54 54 53 53 53 53 53 53 53 53 53 53 54 54 55 56 56 57 58 59 60 60 61 62 63 64 66 67 68 69 70 71 71 72 72 72 73 73 73 73 73 73 73 72 71 71 70 70 70 69 69 69 70 70 70 71 71 71 72
60 61 63 64 64 65 65 65 65 65 65 64 64 64 63 63 63 62 61 61 60 59 59 58 57 56 56 55 54 54 53 53 53 52 52 52 53 53 53 53 54 54 55 56 56 57 57 58 59 59 60 60 61 61 62 62 63 63 64 64 65 65 66 66 66 66 66 66 65 64 64 63 62 61 60 60 60 60 60 60 61 61 62 62 63 64
60 61 62 63 64 65 65 65 65 65 65 65 65 65 65 65 64 64 64 63 62 61 60 59 58 57 56 56 55 54 53 53 52 52 52 52 52 52 52 53 53 53 54 54 55 55 55 56 56 56 56 56 56 56 56 56 56 56 57 57 56 56 56 56 56 56 56 55 55 54 54 53 53 52 52 52 52 52 53 53 54 54 55 56 56 57
60 60 61 63 64 65 65 66 66 66 66 66 66 66 66 66 65 65 65 64 63 62 61 60 59 58 57 56 55 54 53 53 52 52 52 51 51 51 52 52 52 52 53 53 53 53 53 53 52 52 52 51 51 51 50 50 50 49 49 48 48 47 47 46 46 46 45 45 45 45 45 45 45 46 46 46 47 48 48 49 49 50 51 51 52 53
60 60 61 62 64 65 65 66 66 66 66 66 66 66 66 65 65 65 65 64 63 63 62 60 59 58 57 56 55 54 53 53 52 52 51 51 51 51 51 51 51 51 51 51 51 50 50 49 48 48 47 46 46 45 44 43 43 42 41 41 40 40 39 39 39 39 39 39 39 39 40 40 41 41 42 43 44 44 45 46 46 47 48 48 49 50
60 60 61 62 63 64 65 65 66 66 66 66 66 66 65 65 65 64 64 63 63 62 62 61 60 58 57 56 55 54 53 52 52 51 51 50 50 50 50 50 50 50 49 49 48 47 46 45 44 43 42 41 40 40 39 38 37 36 36 35 35 35 34 34 35 35 35 35 36 36 37 38 38 39 40 41 41 42 43 43 44 45 45 46 47 47
60 60 61 61 62 63 64 65 66 66 66 66 66 65 65 64 64 63 63 62 62 61 61 60 60 58 57 56 55 54 53 52 51 51 50 49 49 49 49 49 49 48 47 47 45 44 43 42 41 39 38 37 36 36 35 34 33 33 32 32 32 32 32 32 33 33 34 34 35 35 36 37 37 38 39 39 40 41 41 42 43 43 44 44 45 45
60 60 60 61 62 63 64 64 65 65 66 65 65 65 64 64 63 63 62 62 61 60 60 60 59 58 57 56 55 54 53 52 51 50 49 49 49 49 49 48 48 47 46 45 43 42 40 39 38 37 36 35 34 33 32 32 31 31 31 31 31 31 31 32 32 33 33 34 34 35 35 36 37 37 38 38 39 40 40 41 41 42 42 43 44 44
60 60 60 61 61 62 63 64 64 65 65 65 65 64 64 63 63 62 61 61 60 60 59 59 59 58 57 56 55 53 52 51 50 50 49 48 48 48 48 48 47 45 44 43 41 40 38 37 36 35 34 33 32 31 31 30 30 30 30 30 31 31 31 31 32 32 33 33 34 34 35 35 36 36 36 37 38 38 39 39 40 41 41 42 42 43
61 60 60 60 61 61 62 63 64 64 65 64 64 64 63 63 62 61 60 60 59 59 58 58 58 57 56 55 54 53 52 51 50 49 48 48 48 48 47 47 45 44 43 41 40 38 37 36 35 33 33 32 31 31 30 30 30 30 30 30 31 31 31 31 32 32 32 33 33 33 34 34 34 35 35 36 36 37 38 38 39 39 40 41 41 42
61 60 60 60 61 61 62 62 63 64 64 64 64 64 63 62 61 60 59 59 58 58 58 58 57 57 56 55 54 53 52 51 50 49 48 48 48 47 47 46 45 43 42 40 38 37 36 35 34 33 32 31 31 30 30 30 30 30 30 30 30 31 31 31 31 31 32 32 32 32 33 33 33 34 34 35 36 36 37 37 38 38 39 39 40 41
62 61 60 60 60 61 61 62 62 63 63 63 63 63 62 61 60 59 58 58 58 57 57 57 56 56 55 55 54 53 52 51 50 49 48 48 47 47 46 45 44 42 41 39 38 36 35 34 33 33 32 31 31 31 30 31 31 31 31 30 30 30 30 31 31 31 31 31 32 32 32 33 33 33 34 34 35 35 36 37 37 38 38 39 39 40
62 61 61 60 60 60 61 61 62 62 63 63 63 62 62 61 60 59 58 57 57 56 56 56 56 55 55 54 53 52 51 50 50 49 48 47 47 46 46 44 43 41 40 39 37 36 35 34 33 33 32 32 31 31 31 31 31 31 30 30 30 30 30 31 31 31 31 31 32 32 32 33 33 33 34 34 35 35 36 36 37 37 38 39 39 40
62 61 61 60 60 60 61 61 61 62 62 62 62 62 61 61 59 58 57 57 56 55 55 55 55 55 54 53 53 52 51 50 49 48 48 47 47 46 45 44 43 41 40 38 37 36 35 34 33 33 32 32 32 32 31 31 31 31 31 30 30 30 31 31 31 31 31 32 32 32 33 33 34 34 34 35 35 36 36 37 37 38 38 39 39 40
62 62 61 61 60 60 60 61 61 61 61 62 61 61 60 60 59 58 57 56 55 55 55 54 54 54 53 53 52 51 50 50 49 48 47 47 46 45 45 43 42 41 39 38 37 36 35 35 34 33 33 33 32 32 32 31 31 31 31 31 31 31 31 31 32 32 32 32 33 33 33 34 34 35 35 36 36 36 37 37 38 38 39 39 39 40
63 62 61 61 60 60 60 60 60 60 61 61 61 60 60 59 58 57 56 56 55 54 54 54 54 53 53 52 52 51 50 49 48 48 47 47 46 45 44 43 41 40 39 38 37 36 35 35 34 34 33 33 33 33 32 32 32 31 31 31 32 32 32 32 32 33 33 33 34 34 34 35 35 36 36 37 37 37 38 38 39 39 39 40 40 40
63 62 61 61 60 60 60 60 60 60 60 60 60 59 59 58 58 57 56 55 54 54 54 53 53 53 52 52 51 50 49 49 48 48 47 46 46 45 43 42 41 40 39 38 37 36 36 35 35 34 34 34 33 33 33 33 32 32 32 32 32 33 33 33 33 34 34 34 35 35 35 36 36 37 37 38 38 38 39 39 40 40 40 41 41 41
63 62 62 61 60 60 60 59 59 59 60 59 59 59 58 57 57 56 56 55 54 54 53 53 53 52 52 51 50 50 49 48 48 47 47 46 45 44 43 41 40 40 39 38 37 37 36 35 35 35 35 34 34 34 34 33 33 33 33 33 33 34 34 34 34 35 35 35 36 36 37 37 37 38 38 39 39 39 40 40 40 41 41 41 42 42
63 62 61 61 60 59 59 59 59 59 59 59 59 58 58 57 56 56 55 54 54 53 53 53 52 52 51 51 50 49 49 48 47 47 46 46 45 43 42 41 40 39 39 38 38 37 36 36 35 35 35 35 35 35 34 34 34 34 34 34 35 35 35 35 36 36 36 37 37 37 38 38 39 39 39 40 40 40 41 41 41 42 42 42 43 43
63 62 61 61 60 59 59 59 59 59 59 59 59 58 57 57 56 55 55 54 53 53 53 52 52 51 51 50 49 49 48 48 47 46 46 45 44 43 41 40 40 39 39 39 38 37 37 36 36 36 36 36 36 35 35 35 35 35 35 35 36 36 36 36 37 37 37 38 38 39 39 39 40 40 40 40 41 41 42 42 42 43 43 43 44 44
63 62 61 61 60 59 59 59 59 59 59 59 58 58 57 56 56 55 54 54 53 53 52 52 52 51 50 49 49 48 48 47 47 46 46 45 44 42 41 40 40 39 39 39 38 38 37 36 36 36 36 36 36 36 36 36 36 36 36 36 37 37 37 37 38 38 38 39 39 40 40 40 41 41 41 41 42 42 42 43 43 43 44 44 44 45
63 62 61 61 60 59 59 59 59 59 59 59 58 57 56 56 55 54 54 53 52 52 52 52 51 51 50 49 48 48 47 47 46 46 45 44 43 42 41 40 39 39 39 38 38 38 37 37 37 37 37 37 37 37 37 37 37 37 37 37 37 38 38 38 38 39 39 40 40 41 41 41 42 42 42 43 43 43 43 44 44 44 45 45 45 46
63 62 62 61 60 59 59 59 59 59 59 58 58 57 56 55 54 53 53 52 52 52 52 52 51 50 49 48 47 47 46 46 46 46 45 44 43 41 40 39 39 39 38 38 38 38 37 37 37 37 37 38 38 37 37 37 37 38 38 38 38 38 39 39 39 40 40 40 41 41 42 42 42 43 43 43 44 44 44 44 45 45 45 46 46 47
63 62 62 61 60 59 59 58 58 58 58 58 57 56 56 54 53 53 52 52 52 52 52 51 51 50 49 47 47 46 45 45 45 45 45 44 42 41 40 39 38 38 38 38 38 38 38 38 38 38 38 38 38 38 38 38 38 38 39 39 39 39 39 40 40 40 41 41 41 42 42 43 43 43 44 44 45 45 45 45 46 46 46 46 47 47
63 62 62 61 60 59 59 58 58 58 58 57 57 56 55 54 53 52 52 52 51 51 51 51 50 49 48 47 46 45 45 44 44 44 44 43 42 40 39 38 38 38 37 37 37 38 38 38 38 38 38 38 39 39 39 39 39 39 39 39 39 40 40 40 40 41 41 41 42 42 43 43 43 44 44 45 45 46 46 46 46 46 47 47 47 48
63 62 62 61 60 59 59 58 58 58 58 57 56 55 54 53 52 52 52 51 51 51 50 50 49 49 47 46 45 44 44 44 44 44 43 42 41 40 39 38 37 37 37 37 37 38 38 38 39 39 39 39 39 39 40 40 40 40 40 40 40 40 40 40 41 41 41 42 42 43 43 43 44 44 45 45 46 46 46 47 47 47 47 48 48 48
63 62 62 61 60 59 59 58 58 58 57 56 55 54 53 53 52 51 51 51 50 50 50 49 49 48 47 45 44 44 43 43 43 43 42 42 41 40 38 37 37 37 37 37 37 38 38 39 39 39 40 40 40 40 40 40 41 41 41 41 41 41 41 41 41 42 42 42 43 43 43 44 44 45 45 46 46 47 47 47 47 47 48 48 48 49
62 62 61 61 60 59 59 58 58 57 57 56 55 54 53 52 51 51 50 50 50 49 49 49 48 47 46 45 44 43 43 43 43 43 42 41 40 39 38 37 37 37 38 38 38 38 38 39 39 40 40 40 40 41 41 41 41 41 42 42 42 42 42 42 42 42 42 43 43 44 44 45 45 46 46 46 47 47 47 48 48 48 48 48 49 49
62 61 61 61 60 59 59 58 58 57 56 55 54 53 52 51 51 50 50 49 49 49 49 48 47 47 46 45 44 43 43 43 42 42 42 41 40 39 38 38 37 38 38 38 39 39 39 39 40 40 40 41 41 41 42 42 42 42 42 42 42 43 42 42 43 43 43 43 44 44 45 45 46 46 47 47 48 48 48 48 49 49 49 49 49 50
61 61 61 60 60 59 59 58 57 56 56 54 53 52 51 50 50 50 49 49 49 49 48 47 47 46 45 44 43 43 43 42 42 42 42 41 40 39 38 38 38 38 38 38 39 39 39 40 40 40 41 41 42 42 42 42 43 43 43 43 43 43 43 43 43 44 44 44 45 45 46 46 47 47 48 48 48 49 49 49 50 50 50 50 50 50
61 60 60 60 59 59 58 58 57 56 55 54 52 51 50 50 49 49 49 49 49 48 48 47 46 45 45 44 43 43 42 42 42 42 41 41 40 39 38 38 38 38 38 38 39 39 39 40 40 40 41 42 42 42 43 43 43 44 44 44 44 44 44 44 44 45 45 45 46 46 47 47 48 48 49 49 50 50 50 51 51 51 51 51 51 52
60 60 59 59 59 58 58 57 56 55 54 53 52 51 50 49 49 48 48 48 48 48 47 46 45 45 44 44 43 42 42 42 42 41 41 41 40 39 38 38 38 38 38 39 39 39 39 40 40 41 41 42 42 43 43 43 44 44 45 45 45 45 45 45 45 46 46 46 47 47 48 48 49 49 50 50 51 51 51 52 52 52 53 53 53 53
59 59 59 58 58 57 57 56 55 54 53 52 51 50 49 49 48 48 48 48 48 47 46 45 45 44 44 43 43 42 42 42 41 41 41 41 40 39 38 38 38 39 38 39 39 39 40 40 40 41 41 42 42 43 44 44 44 45 45 45 45 45 46 46 46 46 47 47 48 48 49 49 50 50 51 51 52 52 53 53 53 54 54 54 55 55
58 58 58 57 57 57 56 55 54 53 52 51 50 49 48 48 48 47 47 47 47 46 45 44 44 44 43 43 42 42 42 41 41 41 41 41 40 39 39 39 39 39 39 39 39 40 40 40 41 41 41 42 43 43 44 44 45 45 46 46 46 46 47 47 47 47 48 48 49 49 50 50 51 51 52 52 53 53 54 54 55 55 56 56 56 56
57 57 56 56 56 55 54 53 52 52 51 50 49 48 47 47 47 47 47 47 46 45 44 44 44 43 43 42 42 41 41 41 41 41 41 40 40 39 39 39 39 39 39 39 40 40 40 40 41 41 41 42 43 44 44 45 45 46 46 46 47 47 47 47 48 48 49 49 50 50 51 51 52 52 53 53 54 54 55 55 56 56 57 57 58 58
55 55 55 54 54 53 52 52 51 50 49 48 48 47 47 46 46 47 47 46 46 45 44 44 43 43 43 42 41 41 41 41 41 41 41 40 40 39 39 39 39 39 39 39 40 40 40 41 41 41 42 42 43 44 45 46 46 46 47 47 47 48 48 48 49 49 49 50 50 51 51 52 52 53 53 54 54 55 55 56 57 57 58 58 59 59
53 53 52 52 52 51 51 50 50 49 48 47 46 46 46 46 46 46 46 45 45 44 43 43 43 43 42 42 41 41 41 41 41 41 40 40 39 39 39 39 39 39 39 39 40 40 40 41 41 42 42 43 44 45 45 46 47 47 47 47 47 48 48 49 49 50 50 50 51 52 52 53 53 54 54 54 55 56 56 57 57 58 59 59 60 60
50 50 50 50 49 49 49 49 48 47 46 45 45 45 45 45 45 45 45 44 44 43 43 43 42 42 41 41 41 41 41 41 41 41 40 40 39 39 38 38 38 39 39 39 40 40 40 41 41 42 43 44 44 45 46 47 47 47 47 48 48 48 48 49 49 50 50 51 51 52 52 53 53 54 54 55 56 56 57 57 58 59 59 60 60 61
48 48 48 48 48 47 47 46 45 45 44 44 44 44 45 45 45 45 44 44 43 43 42 42 42 41 41 41 41 41 41 41 41 40 40 39 39 39 38 38 38 39 39 39 40 40 41 41 42 43 43 44 45 46 47 47 47 48 48 48 48 48 49 49 50 50 51 51 52 52 53 53 54 54 55 55 56 56 57 58 59 59 60 61 61 62
46 46 46 46 45 45 44 44 43 43 43 43 43 44 44 44 44 44 43 43 42 42 42 42 41 41 41 40 40 40 40 41 40 40 40 39 39 38 38 38 38 39 39 39 40 40 41 41 42 43 44 45 46 47 47 48 48 48 48 48 49 49 49 50 50 51 51 52 52 53 53 54 54 54 55 55 56 57 58 59 59 60 61 62 62 63
43 43 43 42 42 42 42 42 42 42 42 42 43 43 43 44 44 43 42 42 42 41 41 41 41 40 40 40 40 40 40 40 40 40 39 39 38 38 38 38 38 38 39 39 40 40 41 42 43 44 45 45 46 47 48 48 49 49 49 49 49 50 50 50 51 51 52 52 53 54 54 54 55 55 55 56 57 57 58 59 60 61 62 62 63 64
39 39 39 40 40 40 40 40 41 41 41 42 42 43 43 43 43 42 42 41 41 41 41 40 40 40 40 40 40 40 40 40 39 39 39 38 38 38 38 38 38 38 39 39 40 41 41 42 44 44 45 46 47 48 48 49 49 49 49 50 50 50 51 51 52 52 52 53 54 54 54 55 55 56 56 57 57 58 59 60 61 61 62 63 64 64
37 37 38 38 39 39 39 40 40 40 41 41 42 42 42 42 42 41 41 41 40 40 40 40 40 40 40 40 40 39 39 39 39 38 38 38 38 38 38 38 38 39 39 39 40 41 42 43 44 45 46 47 48 48 48 49 49 49 50 50 50 51 51 52 52 52 53 54 54 55 55 55 56 56 57 57 58 59 59 60 61 62 63 64 65 66
37 37 37 38 38 38 39 39 39 40 40 41 41 41 41 41 40 40 40 40 40 40 39 39 39 39 39 39 39 39 39 38 38 38 38 38 38 38 38 38 38 39 39 40 41 42 43 44 45 46 46 47 48 49 49 49 49 50 50 50 51 51 51 52 52 53 53 54 55 55 56 56 57 57 58 58 59 59 60 61 62 63 64 65 66 67
37 37 37 37 38 38 38 38 39 39 40 40 40 40 40 40 39 39 39 39 39 39 39 39 39 39 39 39 39 39 38 38 38 38 38 37 37 38 38 38 39 39 40 40 41 42 43 44 45 46 47 48 48 49 49 49 49 50 50 50 51 51 52 52 53 53 54 54 55 56 57 57 58 58 59 59 59 60 60 62 63 64 66 67 68 70
36 36 36 36 37 37 37 38 38 39 39 39 39 39 39 39 38 38 38 38 38 39 39 39 39 39 38 38 38 38 38 37 37 37 37 37 37 37 38 38 39 39 40 41 42 43 44 45 46 46 47 48 49 49 50 50 50 50 50 51 51 51 52 52 53 54 54 55 56 57 57 58 58 59 59 60 60 61 62 63 64 66 68 70 71 72
35 35 35 35 36 36 37 37 38 38 38 38 38 38 38 38 38 38 38 38 38 38 38 38 38 38 38 38 37 37 37 37 36 36 36 37 37 37 38 38 39 40 41 42 42 43 44 45 46 47 48 48 49 50 50 50 50 51 51 51 51 52 52 53 53 54 55 56 56 57 58 59 59 60 60 61 61 62 63 64 66 68 70 72 73 74
Wind_Direction
270 270 270 270 270 270 270 270 270 270 270 269 269 268 267 267 267 267 268 269 269 270 272 273 274 274 275 276 276 277 277 277 278 278 278 278 278 278 277 277 276 275 275 274 274 274 275 276 277 277 278 278 278 277 276 275 275 275 275 275 275 275 276 276 276 277 277 278 279 280 280 281 282 282 282 282 282 282 281 281 281 282 282 282 282 282
270 269 269 269 269 269 269 269 269 269 268 268 268 267 267 267 267 267 268 269 270 271 272 273 274 275 275 276 276 276 277 277 277 278 278 278 279 279 279 279 278 278 277 276 276 275 275 275 276 276 277 278 279 279 279 278 277 277 276 276 276 276 276 276 276 277 278 279 279 280 281 282 283 283 283 283 283 283 283 283 283 283 283 283 283 283
270 269 269 269 268 268 268 268 268 268 267 267 267 266 266 267 267 268 269 269 270 271 273 274 275 275 276 276 276 277 277 277 277 277 278 278 279 279 279 279 279 279 279 278 278 277 276 276 275 275 276 276 277 278 278 279 279 279 279 279 278 278 278 278 278 278 279 279 280 281 281 282 282 283 283 283 283 284 284 283 283 283 283 283 283 284
270 270 269 269 268 268 268 267 267 267 267 266 266 266 266 267 267 268 269 270 271 272 273 274 275 276 276 277 277 277 277 277 277 277 277 278 278 279 279 280 280 280 280 279 279 278 277 277 276 276 275 275 275 276 276 277 278 279 279 280 280 280 281 281 281 281 281 281 281 282 282 282 282 282 283 283 283 283 283 283 283 283 283 283 283 283
270 270 269 269 269 268 268 267 267 267 266 266 266 266 266 267 267 268 269 270 271 272 273 274 275 276 276 277 277 277 277 277 277 277 277 278 278 279 280 280 280 280 280 280 279 279 278 278 277 277 276 276 276 276 276 276 277 277 278 279 280 280 281 281 282 282 282 282 283 283 283 283 283 283 283 283 283 283 283 283 283 283 284 284 284 283
270 270 270 269 269 268 268 267 267 267 266 266 266 266 266 267 267 268 269 270 271 272 273 274 275 275 276 276 277 277 277 277 277 277 277 278 278 279 280 280 280 280 280 280 280 279 279 278 278 278 277 277 277 277 277 277 277 278 278 279 279 280 280 281 281 282 282 283 283 283 284 284 284 284 285 285 285 285 285 285 285 285 285 285 285 285
271 270 270 269 269 269 268 268 267 267 267 267 266 266 266 267 267 268 269 270 271 271 272 273 274 274 275 276 276 276 277 277 277 277 277 278 278 279 280 280 281 281 281 280 280 280 279 279 278 278 278 278 278 278 278 278 278 279 279 279 280 280 281 281 282 282 283 283 284 284 285 285 286 286 287 287 287 288 288 288 288 287 287 287 287 286
271 271 270 269 269 269 269 268 268 267 267 267 267 267 267 267 268 268 269 269 270 271 272 272 273 273 274 275 275 276 276 276 276 276 277 278 278 279 280 281 281 281 281 280 280 280 279 279 279 278 278 278 278 279 279 279 279 280 280 281 281 282 282 282 283 283 284 285 285 286 286 287 288 288 289 289 289 289 289 289 289 289 289 289 289 289
271 271 270 270 269 269 269 269 268 268 268 268 267 268 268 268 268 268 269 269 270 270 271 271 272 272 273 274 274 275 275 276 276 276 277 278 279 280 281 281 281 281 280 280 280 279 279 278 278 278 278 278 278 279 279 279 280 280 281 281 282 282 283 284 284 285 285 286 286 287 288 288 289 289 290 290 290 291 291 291 291 291 291 291 291 291
272 271 270 270 270 270 270 269 269 269 268 268 268 268 268 268 268 269 269 269 269 269 270 270 271 271 272 272 273 274 275 275 275 276 277 278 279 280 281 281 281 280 280 279 279 278 278 278 277 277 277 277 278 278 278 279 279 280 281 281 282 282 283 284 284 285 285 286 287 287 288 289 289 290 290 291 291 292 292 293 293 293 293 294 294 294
271 271 271 270 270 270 270 270 269 269 269 269 268 268 268 268 269 269 269 269 269 269 269 269 270 270 271 272 272 273 274 274 275 275 276 278 279 280 281 281 280 279 279 278 277 277 277 276 276 276 276 276 276 277 277 278 278 279 279 280 280 281 282 282 283 284 285 286 286 287 288 289 290 290 291 292 292 293 293 294 294 295 295 296 296 296
271 271 271 270 270 270 270 269 269 269 269 269 269 269 269 269 269 269 269 269 269 269 269 269 269 269 270 271 271 272 273 273 274 275 276 278 279 280 281 280 279 278 277 276 276 275 275 275 274 274 274 274 274 275 275 276 276 277 278 278 279 280 281 282 283 284 285 286 286 287 288 289 290 291 291 292 293 293 294 295 295 296 296 297 297 298
271 271 270 270 270 270 269 269 269 269 269 270 270 269 269 269 269 269 269 269 269 269 268 268 268 268 269 269 270 271 272 273 274 275 276 278 279 280 280 279 277 276 275 275 274 273 273 273 272 272 272 272 272 273 273 274 275 275 276 277 278 279 280 281 282 283 284 285 286 287 288 289 290 291 292 292 293 294 295 295 296 297 297 298 298 298
270 270 270 270 270 269 269 269 269 269 269 269 269 269 269 269 269 269 269 269 269 268 268 267 267 267 267 268 269 270 271 272 273 274 276 278 279 279 278 277 275 274 273 273 272 271 271 270 270 270 270 270 271 271 272 273 273 274 275 276 278 279 280 281 282 283 284 285 286 287 288 289 290 291 292 293 293 294 295 296 297 297 298 299 299 299
269 269 269 269 269 269 269 269 269 269 269 269 269 269 269 269 269 269 269 269 269 268 268 267 266 266 266 267 268 269 270 271 272 274 276 277 278 278 277 275 273 272 271 271 270 269 269 268 268 268 268 269 269 270 271 272 273 274 275 276 277 279 280 281 282 283 284 285 286 287 288 289 290 291 292 293 294 295 296 297 297 298 299 299 300 300
268 268 268 269 269 269 269 269 269 269 269 269 269 269 269 269 269 269 269 269 269 268 268 267 266 265 265 266 266 268 269 270 272 273 275 276 277 276 275 273 272 270 269 269 268 268 267 267 267 267 267 268 268 269 270 271 273 274 275 276 277 278 279 280 281 282 283 284 285 286 287 288 289 291 292 293 294 295 296 297 297 298 299 300 300 300
267 267 268 268 268 268 269 269 268 268 268 268 268 268 268 268 268 268 268 268 269 268 268 267 266 265 264 265 265 266 268 269 271 272 274 275 275 275 273 272 270 269 268 267 267 266 266 266 266 266 267 268 268 269 270 271 272 274 275 276 277 278 279 280 281 282 283 284 285 286 287 288 289 290 291 292 293 294 295 296 297 298 299 299 300 300
266 266 267 267 267 268 268 268 268 268 268 268 268 268 268 268 268 268 268 268 268 269 268 267 266 264 264 264 264 266 267 268 270 272 273 274 274 273 272 270 268 267 266 266 265 265 265 265 266 266 267 268 268 269 270 272 273 274 275 276 278 278 279 280 281 282 283 284 285 285 287 288 289 290 291 292 293 294 295 296 297 298 298 299 300 300
265 265 265 266 266 267 267 267 267 268 268 268 268 268 268 267 267 267 267 267 268 268 268 267 265 264 263 263 264 265 266 267 269 270 272 272 272 271 270 268 267 266 265 265 265 265 265 265 266 266 267 268 269 270 271 272 273 275 276 277 278 279 279 280 281 282 283 284 285 285 286 287 289 290 291 292 293 294 295 295 296 297 298 299 299 300
264 264 264 265 265 266 266 267 267 267 267 267 267 267 267 267 267 266 266 267 267 268 268 267 265 264 262 262 263 264 265 266 268 269 270 271 270 269 268 266 265 265 264 264 264 264 265 265 266 266 267 268 269 270 271 273 274 275 277 277 278 279 280 281 281 282 283 284 285 286 287 288 289 290 291 292 293 293 294 295 296 297 297 298 299 299
263 263 263 264 264 264 265 266 266 266 266 267 267 267 266 266 266 266 266 266 267 267 267 267 265 263 262 262 262 263 264 265 267 268 269 269 268 267 266 265 264 263 263 263 264 264 265 265 266 267 267 268 270 271 272 274 275 276 277 278 279 280 280 281 282 283 284 285 285 286 287 288 289 290 291 292 293 293 294 295 295 296 297 297 298 298
262 262 262 263 263 263 264 265 265 265 265 266 266 266 265 265 265 265 265 265 266 267 267 266 265 263 262 261 261 262 263 264 265 266 267 267 266 265 264 263 263 262 262 263 263 264 265 265 266 267 268 269 270 272 273 274 276 277 278 278 279 280 281 282 283 284 284 285 286 287 288 289 290 290 291 292 293 293 294 295 295 296 296 297 297 298
262 261 262 262 262 262 263 264 264 264 264 265 265 265 265 264 264 264 264 265 265 266 266 266 264 263 261 260 260 261 262 263 264 265 265 264 263 262 262 262 261 261 262 262 263 264 265 265 266 267 269 270 271 273 274 275 276 277 278 279 280 281 282 283 283 284 285 286 287 288 288 289 290 291 291 292 293 293 294 295 295 296 296 297 297 297
261 261 261 261 261 261 261 262 263 263 263 264 264 264 264 263 263 263 263 264 264 265 266 265 264 262 260 260 260 260 261 262 263 264 263 262 261 260 260 260 260 260 261 262 263 264 265 266 267 268 269 271 272 273 275 276 277 278 279 280 280 281 282 283 284 285 286 287 288 289 289 290 290 291 292 292 293 293 294 295 295 296 296 297 297 297
260 260 260 260 260 260 260 261 261 262 262 263 263 263 263 263 262 262 262 262 263 264 265 265 263 261 260 259 259 260 260 261 262 262 262 260 259 258 258 258 259 259 261 262 263 264 265 266 267 269 270 272 273 274 275 276 277 278 279 280 281 282 283 284 285 286 287 288 288 289 290 290 291 291 292 292 293 294 294 295 296 296 296 297 297 297
259 259 259 259 259 259 259 260 260 261 261 262 262 262 262 262 261 261 261 262 263 264 265 264 262 260 259 258 259 259 259 260 261 261 260 259 257 257 256 257 258 259 260 262 263 264 265 266 268 269 271 272 274 275 276 277 278 279 280 281 282 283 284 285 286 287 288 288 289 289 290 291 291 292 292 293 294 294 295 295 296 296 296 297 297 297
258 258 258 258 258 258 258 259 259 260 260 261 261 261 261 261 260 260 261 261 262 263 264 263 262 260 258 258 258 258 258 259 259 259 258 257 256 255 255 256 257 258 260 262 263 264 266 267 269 270 272 273 274 276 277 278 279 280 281 282 283 284 285 285 286 287 288 289 289 290 290 291 292 292 293 294 294 294 295 295 296 296 296 297 297 297
258 257 257 257 257 257 258 258 258 259 259 260 260 260 260 260 259 259 260 260 261 262 263 262 261 259 257 257 257 257 257 258 258 258 257 255 254 253 254 255 256 258 260 262 263 265 267 268 270 271 273 274 275 276 277 278 279 280 281 282 283 284 285 286 286 287 288 289 289 290 291 291 292 293 293 294 294 295 295 295 296 296 296 296 296 296
257 257 257 257 257 257 257 257 258 258 259 259 259 259 259 259 259 258 259 259 260 261 261 261 260 258 256 256 256 256 256 256 256 256 255 254 253 252 253 254 256 258 260 262 264 266 267 269 270 272 273 275 276 277 278 279 280 281 282 283 284 284 285 286 287 287 288 289 290 290 291 292 292 293 293 294 294 294 295 295 295 295 296 296 296 296
256 256 256 256 256 256 256 257 257 257 258 258 258 259 258 258 258 257 258 258 259 260 260 260 258 257 255 254 255 255 255 255 255 254 253 252 251 251 252 254 256 258 260 262 264 266 268 269 271 272 274 275 277 278 279 280 281 282 283 283 284 285 285 286 287 287 288 289 290 290 291 292 292 293 293 293 293 294 294 294 294 295 295 295 295 295
255 255 256 256 256 256 256 256 256 257 257 257 258 258 257 257 256 256 257 258 258 259 259 258 257 255 254 253 253 254 254 253 253 252 252 250 250 250 251 253 256 258 261 263 265 267 268 270 271 273 274 276 277 278 280 281 282 283 283 284 284 285 285 286 287 287 288 289 290 290 291 291 292 292 293 293 293 293 293 294 294 294 294 294 294 294
255 255 255 255 255 255 255 255 256 256 256 256 257 256 256 256 255 255 256 257 258 258 258 257 256 254 253 252 252 252 252 252 251 251 250 249 249 249 251 253 256 258 261 263 265 267 269 271 272 273 275 276 278 279 280 282 283 283 284 285 285 285 286 286 287 287 288 289 290 290 291 291 292 292 292 293 293 293 293 293 293 293 293 293 293 293
254 254 254 254 254 254 255 255 255 255 255 255 255 255 255 255 255 255 255 256 257 257 257 256 254 253 251 251 251 251 251 251 250 249 248 247 247 249 251 253 256 259 261 264 266 268 269 271 273 274 276 277 278 280 281 282 283 284 285 286 286 286 287 287 288 288 289 289 290 291 291 292 292 292 292 293 293 293 293 293 293 293 293 293 293 293
253 253 253 253 254 254 254 254 254 254 254 254 254 254 254 254 254 254 255 256 256 257 256 255 253 251 250 250 250 250 250 249 248 247 246 246 246 248 250 253 256 258 261 264 266 268 270 271 273 275 277 278 279 281 282 283 284 285 286 287 287 288 288 289 289 289 290 291 291 291 292 292 293 293 293 293 293 293 293 293 293 293 293 293 293 293
252 252 252 253 253 253 253 253 253 253 253 253 253 253 253 253 253 253 254 255 256 256 255 253 251 250 249 248 248 249 248 248 247 245 245 244 245 247 250 253 256 258 261 263 265 267 269 272 274 276 278 279 281 282 283 285 286 287 287 288 288 289 289 290 290 291 291 292 292 292 293 293 294 294 294 294 294 294 293 293 293 293 293 293 293 293
252 252 252 252 252 252 252 252 252 252 252 252 252 252 252 252 252 253 254 255 255 255 254 252 249 248 247 247 247 247 247 246 245 244 243 244 245 247 250 253 255 258 261 263 265 267 269 272 274 276 278 280 282 283 285 286 287 288 288 289 289 290 291 291 292 292 292 293 293 294 294 294 295 295 295 295 295 295 294 294 294 294 294 294 294 293
251 251 251 251 251 251 251 251 251 251 251 251 251 251 251 251 252 252 253 254 254 254 252 249 247 246 246 246 246 246 245 244 243 242 242 243 245 247 250 253 256 258 260 263 265 267 270 272 274 277 279 281 283 284 285 286 287 288 288 289 290 291 291 292 292 293 293 294 294 295 295 295 296 296 296 296 296 296 295 295 295 295 295 295 295 294
250 250 250 250 250 250 250 250 250 249 249 249 250 250 250 251 251 252 253 253 253 252 250 248 246 245 245 245 245 245 244 243 242 241 242 243 245 248 250 253 256 258 261 263 266 268 270 273 275 277 280 282 283 285 286 287 287 288 289 290 290 291 291 292 293 293 294 294 295 295 296 296 296 297 297 297 296 296 296 296 296 296 296 296 295 295
250 249 249 249 249 249 249 249 248 248 248 248 249 249 249 250 251 251 252 252 252 250 248 246 244 244 244 244 244 243 242 241 241 241 241 243 245 248 251 253 256 259 261 264 266 269 271 274 276 279 281 283 284 285 286 287 288 288 289 290 291 291 292 293 293 294 294 295 295 296 296 297 297 297 297 297 297 297 297 297 297 296 296 296 296 296
249 249 249 248 248 248 248 247 247 247 247 247 248 248 249 249 250 251 251 251 250 248 246 244 243 243 243 243 242 242 241 240 240 240 241 243 246 248 251 254 256 259 262 265 267 270 273 275 278 280 282 283 285 286 287 287 288 288 289 290 290 291 292 293 293 294 295 295 296 296 297 297 297 297 297 297 297 297 297 297 297 296 296 296 296 296
248 248 247 247 247 246 246 246 246 246 246 246 247 247 248 249 250 250 250 250 248 246 244 243 242 242 242 242 241 240 240 239 239 240 241 243 246 249 251 254 257 260 263 266 268 271 274 276 279 281 283 284 285 286 287 287 288 288 289 290 290 291 292 292 293 294 294 295 296 296 296 297 297 297 297 297 297 297 297 297 296 296 296 296 296 295
247 246 246 246 245 245 245 245 245 245 245 246 246 247 248 248 249 249 249 248 246 244 243 242 241 241 241 240 240 239 239 239 239 240 242 244 247 249 252 255 258 261 264 267 270 272 275 277 280 282 283 285 286 286 286 287 287 288 289 289 290 291 292 292 293 293 294 294 295 295 296 296 296 297 297 297 297 297 297 296 296 296 296 296 296 295
245 245 245 244 244 244 244 244 244 244 245 245 246 247 247 248 248 248 247 246 244 243 242 241 240 240 239 239 238 238 238 238 239 240 243 245 248 251 253 256 260 262 265 268 271 274 276 278 281 282 284 285 286 286 286 287 287 288 289 289 290 291 291 291 292 293 293 294 294 295 295 296 296 296 296 296 296 297 297 296 296 296 296 296 296 295
244 244 244 244 243 243 243 243 244 244 244 245 246 246 247 247 247 247 246 244 243 241 240 239 239 238 238 237 237 236 237 238 239 241 244 246 249 252 255 258 261 264 267 270 273 275 278 280 282 283 285 286 286 286 286 287 287 288 289 289 290 291 291 292 292 293 293 294 294 295 295 296 296 296 296 297 297 297 297 296 296 296 296 296 296 296
244 243 243 242 242 242 242 242 243 243 244 245 246 246 247 247 246 245 244 242 241 240 239 238 237 237 236 235 235 235 236 238 240 242 245 248 251 254 257 260 263 266 269 271 274 276 279 281 283 284 285 286 286 286 286 287 288 288 289 290 291 291 292 292 293 294 294 295 295 296 296 296 297 297 297 297 297 297 297 297 296 296 296 296 296 296
242 242 241 241 241 241 242 242 242 243 244 245 245 246 246 246 245 244 242 240 239 238 237 236 236 235 234 234 234 235 236 238 240 243 246 249 252 255 259 262 265 267 270 273 275 278 280 282 284 285 286 286 286 286 287 287 288 289 290 291 291 292 293 293 294 295 295 296 296 296 297 297 297 297 297 297 297 297 297 297 296 296 296 296 296 296
241 241 240 240 241 241 241 242 243 243 244 245 245 245 245 244 243 242 240 239 237 236 235 234 234 233 233 233 234 235 236 239 242 245 248 251 254 257 260 263 266 269 272 274 277 279 282 283 285 286 286 286 287 287 287 288 289 290 291 291 292 293 293 294 295 295 296 296 297 297 297 297 297 297 297 297 297 297 297 297 297 297 297 297 297 297
240 240 240 240 240 241 242 242 243 244 245 245 244 244 243 243 241 240 238 237 236 234 233 232 232 231 232 232 234 235 238 240 243 246 249 252 256 259 262 265 268 271 273 276 279 281 283 285 286 287 287 287 287 287 288 289 289 290 291 292 292 293 294 295 295 296 296 297 297 297 298 298 298 298 298 298 298 297 297 297 297 297 297 297 297 298
239 239 239 240 240 241 242 243 243 244 244 244 244 243 242 241 239 238 236 235 234 232 231 231 230 230 231 233 234 237 239 242 245 248 251 254 257 260 263 266 269 272 275 278 280 282 284 286 287 287 287 287 288 288 289 289 290 291 291 292 293 294 294 295 296 297 297 297 298 298 298 298 298 298 298 298 298 298 298 298 298 298 298 298 299 299
238 238 239 239 240 241 242 243 243 244 244 243 242 241 240 238 237 236 234 233 232 231 230 229 229 230 231 233 235 238 241 244 247 250 253 256 259 262 265 268 271 274 277 279 282 284 285 286 287 287 287 287 288 289 289 290 290 291 292 293 294 295 295 296 297 297 298 298 298 298 298 298 298 298 298 298 298 299 299 299 299 299 299 300 300 300
237 237 238 239 240 241 242 243 243 243 243 242 241 239 238 236 235 233 232 231 230 229 228 228 229 230 232 234 237 240 243 246 249 253 256 258 262 264 267 270 273 276 279 281 283 285 286 287 287 287 287 287 288 289 290 291 291 292 293 294 295 296 296 297 297 298 298 298 298 298 298 298 298 298 299 299 299 300 300 300 301 300 300 300 300 300